IRIDIUM 69 [-] (25319 NORAD) Tracking and Keplerian Element Data

This shows tracking and keplerian element data for the satellite.

Feedback or suggestion? Click here.




ElementValue
Catalog25319
NameIRIDIUM 69 [-]
Epoch Orbit8123
Epoch Day348.7336359
Epoch Year2018
RAAN16.2301
Inclination86.399
Eccentricity3.18E-05
Argument of Perigee43.0671
Mean Anonmoly317.0552
Mean Motion14.38770608
Decay Rate9E-07
L11 25319U 98026A 18348.73363590 .00000090 00000-0 22838-4 0 9991
L22 25319 86.3990 16.2301 0000318 43.0671 317.0552 14.38770608 81234

Live tracking and technical data element details for IRIDIUM 69 [-] (NORAD 25319). IRIDIUM 69 [-] can be tracked NOW for your location showing map with azimuth and elevation plus other details from your city location.

Track the satellite on the map from your city or location and see movement details for azimuth, elevation, latitude, longitude, range, height, and movement on the map or in text.







IsCatalogInMostPopularTable: catalog: 25319, numindb: 49
Update: records affected: 1



GetName: 25319 IRIDIUM 69 [-]

Hit Count: updated at: Sat, 15 Dec 2018 19:10:55 GMT